This is the latest recevied weather packets stored in our database for station/object N7SHZ. If no packets are shown the sender has not sent any weather packets the latest 1 day(s).
| Time | Temp. | Humidity | Pressure | Rain* | Wind** | Luminosity | Snow |
|---|---|---|---|---|---|---|---|
| 1778035063 | 1.67° C | 92% | 1027.1 hPa | - | - | 1 W/m² | - |
| 1778034760 | 1.67° C | 94% | 1027.1 hPa | - | - | 2 W/m² | - |
| 1778034457 | 1.67° C | 95% | 1027.1 hPa | - | - | 4 W/m² | - |
| 1778034155 | 1.67° C | 96% | 1026.9 hPa | - | - | 6 W/m² | - |
| 1778033852 | 1.67° C | 96% | 1027 hPa | - | - | 9 W/m² | - |
| 1778033549 | 1.67° C | 95% | 1027 hPa | - | - | 15 W/m² | - |
| 1778033246 | 1.67° C | 95% | 1027 hPa | - | - | 17 W/m² | - |
| 1778032944 | 2.22° C | 96% | 1026.9 hPa | - | - | 20 W/m² | - |
| 1778032642 | 2.22° C | 97% | 1027 hPa | - | - | 36 W/m² | - |
| 1778032339 | 2.22° C | 97% | 1027 hPa | - | - | 28 W/m² | - |
| 1778031429 | 2.22° C | 99% | 1026.7 hPa | - | - | 36 W/m² | - |
| 1778030822 | 2.78° C | 99% | 1026.9 hPa | - | - | 132 W/m² | - |
| 1778030217 | 2.78° C | 99% | 1026.7 hPa | - | - | 248 W/m² | - |
| 1778029308 | 2.78° C | 99% | 1026.6 hPa | - | - | 337 W/m² | - |
| 1778029005 | 2.78° C | 99% | 1026.6 hPa | - | - | 362 W/m² | - |
| 1778028702 | 2.22° C | 99% | 1026.6 hPa | - | - | 362 W/m² | - |
| 1778028398 | 2.78° C | 99% | 1026.6 hPa | - | - | 390 W/m² | - |
| 1778027792 | 2.22° C | 99% | 1026.6 hPa | - | - | 422 W/m² | - |
| 1778027488 | 2.22° C | 99% | 1027 hPa | - | - | 441 W/m² | - |
| 1778027184 | 1.67° C | 99% | 1026.6 hPa | - | - | 396 W/m² | - |
| 1778026274 | 1.67° C | 99% | 1027 hPa | - | - | 293 W/m² | - |
| 1778022339 | 1.67° C | 99% | 1026.7 hPa | - | - | 131 W/m² | - |
| 1778020216 | 1.67° C | 99% | 1027 hPa | - | - | 1050 W/m² | - |
| 1778019608 | 1.67° C | 99% | 1027.1 hPa | - | - | 352 W/m² | - |
| 1778018397 | 1.11° C | 99% | 1027.5 hPa | - | - | 245 W/m² | - |
* Rain since midnight (hover to see other rain measurements)
** Current wind speed in m/s (hover to see current wind gust speed)